AirNav   SIMCOM
 
 914 users online  

72NE J&J Airport
Springfield, Nebraska, USA

GOING TO SPRINGFIELD?


FAA INFORMATION EFFECTIVE 14 SEPTEMBER 2017

Location

FAA Identifier: 72NE
Lat/Long: 41-04-44.9950N / 096-09-11.0560W
41-04.749917N / 096-09.184267W
41.0791653 / -96.1530711
(estimated)
Elevation: 1135 ft. / 346 m (estimated)
Variation: 06E (1985)
From city: 1 mile W of SPRINGFIELD, NE
Time zone: UTC -5 (UTC -6 during Standard Time)
Zip code: 68059

Airport Operations

Airport use: Private use. Permission required prior to landing
Activation date: 11/1968
Control tower: no
ARTCC: MINNEAPOLIS CENTER
FSS: COLUMBUS FLIGHT SERVICE STATION
Attendance: UNATNDD
Wind indicator: yes
Segmented circle: no

Airport Communications

WX AWOS-3 at MLE (7 nm N): 118.25 (402-895-6778)
WX AWOS-3 at PMV (13 nm SE): 118.975 (402-298-7524)
WX ASOS at OMA (18 nm NE): PHONE 402-344-0324

Nearby radio navigation aids

VOR radial/distance  VOR name  Freq  Var
OVRr246/19.5OMAHA VORTAC116.3008E
LNKr062/28.3LINCOLN VORTAC116.1009E
SCBr140/38.1SCRIBNER VOR/DME111.0006E

 
NDB name  Hdg/Dist  Freq  Var  ID
PLATTSMOUTH302/13.632905EPMV .--. -- ...-
WAHOO110/22.340006EAHQ .- .... --.-
NEBRASKA CITY330/31.434705EAFK .- ..-. -.-
SHENANDOAH295/39.141105ESDA ... -.. .-

Airport Services

Airframe service: NONE
Powerplant service: NONE

Runway Information

Runway 16/34

Dimensions: 1800 x 80 ft. / 549 x 24 m
Surface: turf
RUNWAY 16  RUNWAY 34
Traffic pattern: leftleft
Obstructions: 15 ft. bldg, 30 ft. from runwaynone
4' FENCE 10' NORTH OF PAD.

Airport Ownership and Management from official FAA records

Ownership: Privately-owned
Owner: JOHN STARTZER
RR 1
SPRINGFIELD, NE 68059
Phone 402-253-2539
Manager: JOHN STARTZER
RR 1
SPRINGFIELD, NE 68059
Phone 402-253-2539

Instrument Procedures

There are no published instrument procedures at 72NE.

Some nearby airports with instrument procedures:

KMLE - Millard Airport (7 nm N)
KOFF - Offutt Air Force Base (11 nm E)
KPMV - Plattsmouth Municipal Airport (13 nm SE)
KOMA - Eppley Airfield (18 nm NE)
KBTA - Blair Municipal Airport (20 nm N)
 
Loc | Ops | Rwys | IFR | FBO | Links
Com | Nav | Svcs | Stats | Notes

Silverhawk Aviation, Inc.
AirBoss

 
Area around 72NE (J&J Airport)
 
Road maps at: MapQuest Bing Google
 
Aerial photo
No photo
 
Sectional chart

 
Airport distance calculator
Flying to J&J Airport? Find the distance to fly.

From to 72NE

Sunrise and sunset
Times for 24-Sep-2017
 Local
(UTC-5)
 Zulu
(UTC)
Morning civil twilight06:4811:48
Sunrise07:1512:15
Sunset19:1800:18
Evening civil twilight19:4600:46

Current date and time
Zulu (UTC)  24-Sep-2017 23:10:41
Local (UTC-5)  24-Sep-2017 18:10:41
 
METAR
KMLE 
7nm N 
242255Z AUTO 00000KT 10SM CLR 26/20 A2986 RMK AO2 T02620199
KOFF 
11nm E 
242256Z AUTO 08004KT 10SM CLR 25/20 A2987 RMK AO2 SLP112 T02510201 $
KPMV 
13nm SE 
242255Z AUTO 12004KT 10SM CLR 26/18 A2988 RMK AO2 T02640179
KOMA 
18nm NE 
242252Z 00000KT 10SM SCT060 BKN090 BKN250 26/19 A2987 RMK AO2 SLP106 CB MOV NE T02560194
TAF
KOFF 
11nm E 
242140Z 2421/2524 27010G15KT 9999 SCT050 BKN100 QNH2983INS TEMPO 2421/2424 23015G25KT 6000 -TSRA SCT060CB BECMG 2423/2424 22009KT 9999 SCT015 OVC030 QNH2982INS BECMG 2511/2512 23006KT 9999 OVC010 QNH2979INS BECMG 2515/2516 35009KT 8000 -SHRA OVC007 QNH2995INS TX32/2421Z TN18/2512Z
KOMA 
18nm NE 
242215Z 2422/2518 16012KT P6SM VCTS SCT030CB BKN060 TEMPO 2422/2423 VRB10G20KT FM250200 34009KT P6SM VCSH OVC050 FM250400 34009KT 6SM -SHRA VCTS SCT015CB OVC025 FM251000 34007KT 5SM -SHRA BR OVC012
NOTAMs
Click for the latest NOTAMs
NOTAMs are issued by the DoD/FAA and will open in a separate window not controlled by AirNav.

 

 
 

Would you like to see your business listed on this page?

 If your business provides an interesting product or service to pilots, flight crews, aircraft, or users of the J&J Airport, you should consider listing it here.  To start the listing process, click on the button below
 
Add a business
 

Other Pages about J&J Airport

Update a link
 
Copyright © AirNav, LLC. All rights reserved. Privacy Policy  Contact